Temp
7 8 8 8 8 8 8 8 9 9 10 10 11 12 12 12 12 11 12 12 13 12
8 8 8 8 8 8 8 8 8 9 9 10 10 11 11 12 11 11 11 10 11 11
7 7 7 7 7 7 6 7 8 8 9 9 10 10 10 10 10 10 10 11 11 10
5 6 6 6 6 6 6 7 7 8 8 8 9 9 9 9 9 9 9 9 9 9
4 4 4 5 5 5 5 6 7 7 7 8 8 8 8 8 8 8 8 8 7 7
2 1 1 2 2 3 4 5 5 6 6 5 5 6 6 6 6 7 6 6 6 5
2 1 1 0 -0 1 1 2 2 3 3 3 3 3 3 3 4 4 4 4 4 3
2 1 1 1 1 -1 2 2 2 2 2 2 2 2 2 2 2 3 3 2 2 1
1 1 1 1 1 1 1 2 1 1 2 2 2 0 1 2 2 0 1 1 1 -1
2 1 1 1 1 0 0 -0 -0 -0 1 0 -0 -1 -1 -0 -0 -0 -2 -2 -2 -3
1 1 0 -1 -1 -1 -1 -1 -1 -2 -2 -1 -1 -1 -1 -1 -2 -2 -3 -3 -4 -4
1 0 -1 -1 -1 -1 -1 -1 -1 -2 -2 -2 -2 -2 -2 -2 -2 -3 -3 -3 -4 -5
-0 -0 -1 -2 -2 -2 -2 -2 -2 -3 -3 -4 -3 -3 -3 -3 -3 -4 -4 -4 -4 -4
1 0 -2 -3 -3 -3 -3 -3 -3 -3 -3 -4 -4 -4 -4 -5 -6 -6 -6 -5 -5 -5
Height
1437 1438 1439 1439 1439 1440 1440 1439 1438 1438 1438 1440 1442 1445 1447 1449 1446 1449 1450 1449 1455 1459
1436 1437 1436 1436 1437 1437 1436 1435 1433 1433 1433 1433 1434 1436 1440 1441 1442 1442 1433 1438 1447 1452
1435 1435 1435 1435 1434 1434 1433 1431 1430 1430 1430 1430 1430 1431 1434 1434 1436 1436 1436 1437 1443 1447
1435 1434 1433 1432 1432 1431 1430 1429 1428 1428 1429 1426 1428 1429 1430 1432 1432 1433 1436 1439 1441 1443
1436 1434 1433 1432 1430 1429 1428 1427 1425 1425 1426 1424 1426 1428 1427 1424 1428 1429 1432 1434 1437 1435
1441 1438 1434 1433 1431 1430 1429 1427 1426 1424 1425 1425 1425 1426 1427 1427 1428 1428 1430 1431 1429 1432
1445 1442 1440 1437 1435 1433 1431 1429 1427 1427 1427 1427 1425 1425 1427 1427 1428 1427 1428 1428 1429 1431
1445 1444 1442 1439 1437 1436 1435 1432 1429 1428 1428 1427 1427 1427 1427 1427 1428 1426 1426 1426 1426 1427
1447 1445 1443 1441 1439 1437 1435 1432 1429 1428 1427 1426 1425 1425 1425 1425 1425 1424 1423 1422 1422 1425
1446 1444 1442 1441 1439 1437 1434 1432 1430 1429 1428 1426 1425 1425 1423 1423 1422 1422 1423 1421 1424 1426
1445 1442 1440 1438 1437 1435 1434 1432 1431 1430 1428 1427 1426 1426 1425 1424 1424 1424 1424 1424 1424 1424
1445 1442 1440 1438 1436 1434 1432 1431 1431 1430 1429 1428 1427 1427 1426 1425 1425 1425 1425 1425 1424 1424
1443 1441 1439 1437 1436 1434 1432 1431 1430 1429 1429 1428 1428 1426 1426 1426 1425 1425 1424 1424 1423 1422
1440 1438 1437 1436 1435 1434 1433 1431 1430 1429 1429 1428 1427 1426 1425 1425 1424 1424 1423 1422 1421 1420
Wind_Speed
11 16 17 19 21 21 24 25 29 28 28 34 36 40 36 37 31 33 36 33 29 29
10 13 16 19 20 21 24 27 26 25 26 28 32 33 35 39 27 45 27 26 20 21
9 13 15 16 17 19 17 14 17 19 20 20 21 27 25 26 38 29 18 19 20 22
3 7 9 11 11 13 9 10 10 11 14 7 13 11 13 24 19 10 11 13 17 18
10 8 6 4 3 4 3 4 7 6 9 12 7 7 3 7 10 13 13 12 9 9
13 11 9 8 8 6 4 3 4 3 4 2 3 3 3 1 4 6 6 8 10 10
15 14 12 11 10 8 8 7 7 6 4 2 2 1 1 3 3 5 6 7 8 12
13 11 10 12 13 10 8 6 5 5 5 6 6 5 5 6 7 6 7 8 11 13
11 11 10 9 7 7 7 8 9 10 7 5 7 9 8 7 7 7 6 7 7 9
10 10 9 8 8 9 9 10 9 8 8 8 8 8 7 7 6 6 6 7 4 5
11 10 9 9 8 8 8 7 7 6 6 6 7 8 7 5 3 3 4 4 5 9
11 10 10 9 9 7 5 5 4 4 4 5 7 7 6 4 3 4 3 2 3 5
13 12 11 10 7 5 4 4 4 5 5 6 7 8 6 5 6 6 6 4 4 6
13 12 10 8 6 5 4 2 2 2 4 6 8 8 7 8 11 11 11 11 10 11
Wind_Direction
266 255 261 259 260 264 266 271 272 267 263 255 252 247 252 256 253 246 241 242 243 249
266 259 259 260 261 262 266 273 275 273 265 258 248 244 248 253 275 250 246 225 247 256
253 255 257 263 265 270 278 280 275 270 266 257 249 237 246 245 247 277 252 271 260 251
295 280 271 274 266 268 255 259 275 263 268 271 262 254 243 231 251 267 239 263 267 263
77 77 74 92 138 170 159 255 230 248 259 282 263 265 257 270 252 251 252 242 224 247
34 43 72 88 93 90 93 150 121 286 240 173 166 162 173 194 215 228 238 253 263 272
18 15 16 28 39 46 62 71 74 77 59 57 92 129 161 189 211 232 263 287 298 302
9 7 357 358 360 7 3 8 12 11 355 347 337 338 334 318 306 305 306 308 317 310
357 1 3 5 5 359 0 353 11 8 0 345 335 343 341 347 354 9 352 340 333 317
345 347 352 356 355 353 353 356 359 355 356 16 19 23 21 13 21 21 32 30 5 345
331 334 339 339 339 337 339 344 355 13 5 19 24 26 24 19 21 23 14 8 360 351
325 324 324 324 329 339 353 8 22 35 37 30 23 25 31 25 1 1 356 322 321 340
321 322 324 325 332 344 3 24 40 43 39 35 18 11 13 2 4 8 14 357 328 316
311 318 323 323 327 337 352 8 39 27 15 2 356 355 4 14 1 358 345 344 337 333